Location: Aero Crafter Incorporated Heliport
(33.1248°N, 96.5222°W)
Time: 09:54:47
(UTC+00:00)

COSMO-SKYMED 1 - Pass Details

Date: 18 November 2025
Orbit: 579 x 581 km, 97.9° (Epoch: 07 December)

Event Time Altitude Azimuth Distance (km) Brightness Sun altitude
Rises 12:06:19 0° 171° (S) 2,785 6.3 -11.4°
Reaches altitude 10° 12:08:28 10° 173° (S) 1,889 5.4 -11.0°
Maximum altitude 12:12:33 73° 258° (WSW) 611 2.4 -10.2°
Drops below altitude 10° 12:16:40 10° 344° (NNW) 1,901 4.7 -9.4°
Sets 12:18:50 0° 346° (NNW) 2,803 5.6 -8.9°
